| time (UTC) | temp F | wind direction | speed MPH | gust MPH | rain 1hr in | rain 24hr in | rain mn in | humidity % | barometer mb |
| 20260505100011 | 57 | 47 | 0.0 | 0.0 | 0.00 | 0.00 | 0.00 | 73 | 1005.0 |
| 20260505094508 | 58 | 47 | 0.0 | 0.0 | 0.00 | 0.00 | 0.00 | 70 | 1004.9 |
| 20260505093006 | 58 | 46 | 0.0 | 0.0 | 0.00 | 0.00 | 0.00 | 69 | 1004.8 |
| 20260505091500 | 58 | 45 | 0.0 | 0.0 | 0.00 | 0.00 | 0.00 | 70 | 1004.8 |
| 20260505090101 | 58 | 45 | 0.0 | 0.0 | 0.00 | 0.00 | 0.00 | 70 | 1004.8 |
| 20260505084603 | 57 | 45 | 0.0 | 0.0 | 0.00 | 0.00 | 0.00 | 69 | 1004.8 |
| 20260505083104 | 57 | 45 | 0.0 | 0.0 | 0.00 | 0.00 | 0.00 | 69 | 1004.7 |
| 20260505081548 | 56 | 45 | 0.0 | 0.0 | 0.00 | 0.00 | 0.00 | 69 | 1004.7 |
| 20260505080045 | 56 | 45 | 0.0 | 0.0 | 0.00 | 0.00 | 0.00 | 69 | 1004.7 |
| 20260505074542 | 55 | 45 | 0.0 | 0.0 | 0.00 | 0.00 | 0.00 | 70 | 1004.7 |
| 20260505073041 | 55 | 45 | 0.0 | 0.0 | 0.00 | 0.00 | 0.00 | 72 | 1004.6 |
| 20260505071538 | 54 | 45 | 0.0 | 0.0 | 0.00 | 0.00 | 0.00 | 74 | 1004.4 |
| 20260505070043 | 55 | 45 | 0.0 | 0.0 | 0.00 | 0.00 | 0.00 | 71 | 1004.3 |
| 20260505064534 | 56 | 45 | 0.0 | 0.0 | 0.00 | 0.00 | 0.00 | 69 | 1004.2 |
| 20260505063034 | 57 | 45 | 0.0 | 0.0 | 0.00 | 0.00 | 0.00 | 69 | 1003.7 |
| 20260505061553 | 58 | 45 | 0.0 | 0.0 | 0.00 | 0.00 | 0.00 | 68 | 1004.0 |
| 20260505060035 | 57 | 45 | 0.0 | 0.0 | 0.00 | 0.00 | 0.00 | 68 | 1003.6 |
| 20260505054543 | 57 | 45 | 0.0 | 0.0 | 0.00 | 0.00 | 0.00 | 68 | 1003.5 |
| 20260505053032 | 57 | 45 | 0.0 | 0.0 | 0.00 | 0.00 | 0.00 | 68 | 1003.4 |
| 20260505051532 | 58 | 45 | 0.0 | 0.0 | 0.00 | 0.00 | 0.00 | 65 | 1003.3 |
| 20260505041531 | 63 | 45 | 0.0 | 0.0 | 0.00 | 0.00 | 0.00 | 55 | 1003.0 |
| 20260505040039 | 63 | 45 | 0.0 | 0.0 | 0.00 | 0.00 | 0.00 | 54 | 1002.8 |
| 20260505034537 | 63 | 45 | 0.0 | 0.0 | 0.00 | 0.00 | 0.00 | 55 | 1002.7 |
| 20260505033029 | 63 | 45 | 0.0 | 0.0 | 0.00 | 0.00 | 0.00 | 57 | 1002.6 |
| 20260505031530 | 65 | 45 | 0.0 | 0.0 | 0.00 | 0.00 | 0.00 | 56 | 1002.5 |
| 20260505030029 | 68 | 45 | 0.0 | 0.0 | 0.00 | 0.00 | 0.00 | 54 | 1002.4 |
| 20260505024528 | 73 | 48 | 0.0 | 0.0 | 0.00 | 0.00 | 0.00 | 46 | 1002.4 |
| 20260505023026 | 76 | 46 | 0.0 | 0.0 | 0.00 | 0.00 | 0.00 | 37 | 1002.4 |
| 20260505021526 | 77 | 46 | 0.0 | 0.0 | 0.00 | 0.00 | 0.00 | 35 | 1002.5 |
| 20260505020035 | 77 | 48 | 0.0 | 0.0 | 0.00 | 0.00 | 0.00 | 35 | 1002.6 |
| 20260505014524 | 78 | 48 | 0.0 | 0.0 | 0.00 | 0.00 | 0.00 | 33 | 1002.6 |
| 20260505013025 | 79 | 45 | 0.0 | 0.0 | 0.00 | 0.00 | 0.00 | 31 | 1002.8 |
| 20260505011521 | 80 | 42 | 0.0 | 0.0 | 0.00 | 0.00 | 0.00 | 30 | 1002.9 |
| 20260505010021 | 80 | 28 | 0.0 | 0.0 | 0.00 | 0.00 | 0.00 | 28 | 1003.1 |
| 20260505004521 | 81 | 28 | 0.0 | 0.0 | 0.00 | 0.00 | 0.00 | 27 | 1003.0 |
| 20260505003019 | 82 | 27 | 0.0 | 0.0 | 0.00 | 0.00 | 0.00 | 26 | 1003.1 |
| 20260505001519 | 82 | 339 | 0.0 | 0.0 | 0.00 | 0.00 | 0.00 | 26 | 1003.1 |
| 20260505000032 | 83 | 359 | 0.0 | 0.0 | 0.00 | 0.00 | 0.00 | 25 | 1003.1 |
| 20260504234518 | 83 | 341 | 0.0 | 0.0 | 0.00 | 0.00 | 0.00 | 25 | 1003.2 |
| 20260504233016 | 83 | 342 | 0.0 | 0.0 | 0.00 | 0.00 | 0.00 | 26 | 1003.2 |
| 20260504231514 | 83 | 342 | 0.0 | 0.0 | 0.00 | 0.00 | 0.00 | 25 | 1003.3 |
| 20260504230014 | 83 | 359 | 0.0 | 0.0 | 0.00 | 0.00 | 0.00 | 28 | 1003.4 |
| 20260504224512 | 83 | 337 | 0.0 | 0.0 | 0.00 | 0.00 | 0.00 | 30 | 1003.5 |
| 20260504223010 | 83 | 359 | 0.0 | 0.0 | 0.00 | 0.00 | 0.00 | 30 | 1003.6 |
| 20260504221508 | 82 | 359 | 0.0 | 0.0 | 0.00 | 0.00 | 0.00 | 28 | 1003.9 |
| 20260504220016 | 81 | 337 | 0.0 | 0.0 | 0.00 | 0.00 | 0.00 | 26 | 1004.0 |
| 20260504214504 | 82 | 320 | 0.0 | 0.0 | 0.00 | 0.00 | 0.00 | 30 | 1004.1 |
| 20260504213006 | 82 | 319 | 0.0 | 0.0 | 0.00 | 0.00 | 0.00 | 29 | 1004.2 |
| 20260504211502 | 82 | 319 | 0.0 | 0.0 | 0.00 | 0.00 | 0.00 | 34 | 1004.3 |
| 20260504210106 | 80 | 318 | 0.0 | 0.0 | 0.00 | 0.00 | 0.00 | 31 | 1004.5 |
| 20260504204604 | 81 | 319 | 0.0 | 0.0 | 0.00 | 0.00 | 0.00 | 30 | 1004.7 |
| 20260504203056 | 80 | 319 | 0.0 | 0.0 | 0.00 | 0.00 | 0.00 | 31 | 1004.8 |
| 20260504201551 | 79 | 359 | 0.0 | 0.0 | 0.00 | 0.00 | 0.00 | 32 | 1004.9 |
| 20260504200049 | 78 | 329 | 0.0 | 0.0 | 0.00 | 0.00 | 0.00 | 33 | 1005.0 |
| 20260504194547 | 78 | 329 | 0.0 | 0.0 | 0.00 | 0.00 | 0.00 | 34 | 1005.0 |
| 20260504193058 | 77 | 359 | 0.0 | 0.0 | 0.00 | 0.00 | 0.00 | 33 | 1005.1 |
| 20260504191543 | 76 | 329 | 0.0 | 0.0 | 0.00 | 0.00 | 0.00 | 32 | 1005.2 |
| 20260504190042 | 76 | 329 | 0.0 | 0.0 | 0.00 | 0.00 | 0.00 | 34 | 1005.4 |
| 20260504184537 | 75 | 329 | 0.0 | 0.0 | 0.00 | 0.00 | 0.00 | 36 | 1005.4 |
| 20260504183041 | 74 | 329 | 0.0 | 0.0 | 0.00 | 0.00 | 0.00 | 41 | 1005.5 |
| 20260504181536 | 74 | 329 | 0.0 | 0.0 | 0.00 | 0.00 | 0.00 | 37 | 1005.7 |
| 20260504180036 | 74 | 329 | 0.0 | 0.0 | 0.00 | 0.00 | 0.00 | 39 | 1005.6 |
| 20260504174529 | 73 | 324 | 0.0 | 0.0 | 0.00 | 0.00 | 0.00 | 39 | 1005.7 |
| 20260504173030 | 73 | 359 | 0.0 | 0.0 | 0.00 | 0.00 | 0.00 | 41 | 1005.7 |
| 20260504171525 | 72 | 359 | 0.0 | 0.0 | 0.00 | 0.00 | 0.00 | 40 | 1005.7 |